Hourly Data Report for July 07, 2021

SARNIA
ONTARIO
Current Station Operator: NAVCAN

42°59'58.000" N
82°18'32.000" W
181.40 m
6127510
71704
YZR

Download Data

Hourly Data (July 2021)
Hourly Data Report for July 7, 2021
TIME
LST
Temp Definition
°C
Dew Point Definition
°C
Rel Hum Definition
%
Precip. Amount Definition
mm

Wind Dir Definition
10's deg

Wind Spd Definition
km/h
Visibility Definition
km
Stn Press Definition
kPa
Hmdx Definition


Wind Chill Definition


Weather Definition


00:00 21.5 20.3 93 5.8 LegendMM 8 3.6 99.36 29   Thunderstorms, Rain, Fog
01:00 21.3 20.7 96 2.3 21 5 11.3 99.35 29   Thunderstorms, Rain
02:00 20.9 20.6 98 0.0 LegendMM 4 8.1 99.27 29   Fog
03:00 20.7 20.1 96 0.2 32 5 16.1 99.27 28   LegendNANA
04:00 19.5 19.0 97 0.0 34 8 4.8 99.26     Fog
05:00 19.3 19.0 98 0.0 19 5 4.8 99.27     Fog
06:00 19.4 19.1 98 0.0   0 4.8 99.26     Fog
07:00 20.3 19.7 96 0.0 18 8 4.8 99.25 28   Fog
08:00 19.9 19.6 98 0.0 1 11 1.6 99.32     Fog
09:00 20.4 19.6 95 0.0 1 11 4.8 99.32 28   Fog
10:00 21.4 19.8 90 0.0 2 13 8.1 99.32 29   Fog
11:00 22.6 20.2 86 0.0 3 15 9.7 99.29 30   Haze
12:00 22.9 20.5 86 0.0 5 13 14.5 99.27 31   LegendNANA
13:00 23.4 20.4 83 0.0 1 15 16.1 99.20 31   LegendNANA
14:00 21.1 19.1 88 0.0 36 18 16.1 99.18 28   LegendNANA
15:00 20.3 19.0 92 0.0 1 18 16.1 99.16 27   Thunderstorms
16:00 20.6 19.2 92 0.0 36 9 16.1 99.15 28   Thunderstorms, Rain
17:00 20.3 19.2 93 0.0 35 11 14.5 99.16 27   LegendNANA
18:00 19.8 19.0 95 1.8 34 8 11.3 99.16     Thunderstorms, Rain
19:00 19.8 19.1 96 0.0 35 8 16.1 99.19     LegendNANA
20:00 19.5 18.8 96 0.0 2 5 16.1 99.13     LegendNANA
21:00 19.6 19.0 96 0.0 13 9 9.7 99.11     Fog
22:00 19.9 19.4 97 0.0 17 11 9.7 99.07     Fog
23:00 19.8 19.3 97 0.0 20 5 8.1 99.09     Fog

Notes on Data Quality.

Legend

  • E = Estimated
  • M = Missing
  • NA = Not Available*
  • [empty] = Indicates an unobserved value
Date modified: